TimeEST,TemperatureF,Dew PointF,Humidity,Sea Level PressureIn,VisibilityMPH,Wind Direction,Wind SpeedMPH,Gust SpeedMPH,PrecipitationIn,Events,Conditions,WindDirDegrees,DateUTC
12:15 AM,35.6,26.6,70,30.09,10.0,Calm,Calm,-,N/A,,Clear,0,2014-01-17 05:15:00
12:35 AM,33.8,26.6,75,30.09,10.0,SW,5.8,-,N/A,,Clear,230,2014-01-17 05:35:00
12:55 AM,33.8,26.6,75,30.08,10.0,SW,5.8,-,N/A,,Clear,230,2014-01-17 05:55:00
1:15 AM,33.8,26.6,75,30.08,10.0,SW,5.8,-,N/A,,Clear,220,2014-01-17 06:15:00
1:35 AM,33.8,26.6,75,30.08,10.0,Calm,Calm,-,N/A,,Clear,0,2014-01-17 06:35:00
1:55 AM,33.8,26.6,75,30.07,10.0,Calm,Calm,-,N/A,,Clear,0,2014-01-17 06:55:00
2:15 AM,33.8,24.8,70,30.08,10.0,Calm,Calm,-,N/A,,Clear,0,2014-01-17 07:15:00
2:35 AM,33.8,24.8,70,30.08,10.0,Calm,Calm,-,N/A,,Clear,0,2014-01-17 07:35:00
2:55 AM,32.0,24.8,75,30.07,10.0,Calm,Calm,-,N/A,,Clear,0,2014-01-17 07:55:00
3:15 AM,32.0,24.8,75,30.07,10.0,Calm,Calm,-,N/A,,Clear,0,2014-01-17 08:15:00
3:35 AM,32.0,26.6,80,30.07,10.0,Calm,Calm,-,N/A,,Clear,0,2014-01-17 08:35:00
3:55 AM,32.0,26.6,80,30.06,10.0,Calm,Calm,-,N/A,,Clear,0,2014-01-17 08:55:00
4:15 AM,32.0,26.6,80,30.06,10.0,Calm,Calm,-,N/A,,Clear,0,2014-01-17 09:15:00
4:35 AM,32.0,24.8,75,30.06,10.0,Calm,Calm,-,N/A,,Clear,0,2014-01-17 09:35:00
4:55 AM,30.2,26.6,86,30.06,10.0,Calm,Calm,-,N/A,,Clear,0,2014-01-17 09:55:00
5:15 AM,32.0,26.6,80,30.06,10.0,Calm,Calm,-,N/A,,Clear,0,2014-01-17 10:15:00
5:35 AM,30.2,26.6,86,30.05,10.0,Calm,Calm,-,N/A,,Clear,0,2014-01-17 10:35:00
5:55 AM,30.2,26.6,86,30.05,10.0,Calm,Calm,-,N/A,,Clear,0,2014-01-17 10:55:00
6:15 AM,32.0,26.6,80,30.05,10.0,Calm,Calm,-,N/A,,Clear,0,2014-01-17 11:15:00
6:35 AM,30.2,26.6,86,30.05,10.0,Calm,Calm,-,N/A,,Clear,0,2014-01-17 11:35:00
6:55 AM,30.2,24.8,80,30.05,10.0,Calm,Calm,-,N/A,,Clear,0,2014-01-17 11:55:00
7:15 AM,30.2,26.6,86,30.05,10.0,Calm,Calm,-,N/A,,Clear,0,2014-01-17 12:15:00
7:35 AM,30.2,26.6,86,30.05,10.0,Calm,Calm,-,N/A,,Clear,0,2014-01-17 12:35:00
7:55 AM,32.0,26.6,80,30.05,10.0,Calm,Calm,-,N/A,,Clear,0,2014-01-17 12:55:00
8:15 AM,35.6,28.4,75,30.06,10.0,SW,6.9,-,N/A,,Clear,220,2014-01-17 13:15:00
8:35 AM,37.4,26.6,65,30.06,10.0,SW,9.2,-,N/A,,Clear,230,2014-01-17 13:35:00
8:55 AM,39.2,28.4,65,30.06,10.0,SW,8.1,-,N/A,,Clear,220,2014-01-17 13:55:00
9:15 AM,41.0,28.4,61,30.07,10.0,SW,8.1,-,N/A,,Clear,220,2014-01-17 14:15:00
9:35 AM,44.6,30.2,57,30.07,10.0,SW,9.2,-,N/A,,Clear,220,2014-01-17 14:35:00
9:55 AM,46.4,32.0,57,30.07,10.0,SW,8.1,-,N/A,,Clear,220,2014-01-17 14:55:00
10:15 AM,48.2,32.0,54,30.06,10.0,SW,6.9,-,N/A,,Clear,230,2014-01-17 15:15:00
10:35 AM,50.0,32.0,50,30.06,10.0,Variable,6.9,13.8,N/A,,Clear,0,2014-01-17 15:35:00
10:55 AM,51.8,32.0,47,30.06,10.0,West,8.1,-,N/A,,Clear,260,2014-01-17 15:55:00
11:15 AM,51.8,32.0,47,30.05,10.0,West,6.9,-,N/A,,Clear,260,2014-01-17 16:15:00
11:35 AM,53.6,33.8,47,30.04,10.0,SSW,10.4,-,N/A,,Clear,200,2014-01-17 16:35:00
11:55 AM,53.6,33.8,47,30.03,10.0,SW,8.1,-,N/A,,Clear,220,2014-01-17 16:55:00
12:15 PM,53.6,33.8,47,30.01,10.0,SW,9.2,-,N/A,,Clear,230,2014-01-17 17:15:00
12:35 PM,55.4,33.8,44,29.99,10.0,SW,9.2,-,N/A,,Clear,220,2014-01-17 17:35:00
12:55 PM,57.2,35.6,44,29.97,10.0,Variable,6.9,12.7,N/A,,Clear,0,2014-01-17 17:55:00
1:15 PM,57.2,35.6,44,29.96,10.0,South,12.7,-,N/A,,Clear,190,2014-01-17 18:15:00
1:35 PM,57.2,35.6,44,29.96,10.0,SW,13.8,-,N/A,,Clear,230,2014-01-17 18:35:00
1:55 PM,57.2,35.6,44,29.94,10.0,SW,10.4,-,N/A,,Clear,230,2014-01-17 18:55:00
2:15 PM,59.0,37.4,45,29.95,10.0,SSW,12.7,19.6,N/A,,Clear,210,2014-01-17 19:15:00
2:35 PM,59.0,37.4,45,29.94,10.0,SSW,15.0,-,N/A,,Clear,210,2014-01-17 19:35:00
2:55 PM,59.0,37.4,45,29.93,10.0,South,12.7,-,N/A,,Clear,190,2014-01-17 19:55:00
3:15 PM,57.2,37.4,48,29.92,10.0,SSW,12.7,20.7,N/A,,Clear,210,2014-01-17 20:15:00
3:35 PM,59.0,37.4,45,29.92,10.0,SSW,16.1,-,N/A,,Clear,210,2014-01-17 20:35:00
3:55 PM,59.0,37.4,45,29.92,10.0,SSW,13.8,19.6,N/A,,Clear,210,2014-01-17 20:55:00
4:15 PM,59.0,37.4,45,29.92,10.0,SW,10.4,17.3,N/A,,Clear,220,2014-01-17 21:15:00
4:35 PM,59.0,37.4,45,29.91,10.0,SW,10.4,-,N/A,,Clear,220,2014-01-17 21:35:00
4:55 PM,59.0,37.4,45,29.91,10.0,SSW,9.2,17.3,N/A,,Clear,210,2014-01-17 21:55:00
5:15 PM,57.2,37.4,48,29.90,10.0,SSW,5.8,-,N/A,,Clear,210,2014-01-17 22:15:00
5:35 PM,53.6,37.4,54,29.90,10.0,Calm,Calm,-,N/A,,Clear,0,2014-01-17 22:35:00
5:55 PM,51.8,37.4,58,29.90,10.0,Calm,Calm,-,N/A,,Clear,0,2014-01-17 22:55:00
6:15 PM,50.0,37.4,62,29.91,10.0,Calm,Calm,-,N/A,,Clear,0,2014-01-17 23:15:00
6:35 PM,46.4,37.4,71,29.91,10.0,Calm,Calm,-,N/A,,Clear,0,2014-01-17 23:35:00
6:55 PM,44.6,37.4,76,29.91,10.0,Calm,Calm,-,N/A,,Clear,0,2014-01-17 23:55:00
7:15 PM,42.8,39.2,87,29.91,10.0,Calm,Calm,-,N/A,,Clear,0,2014-01-18 00:15:00
7:35 PM,42.8,39.2,87,29.91,10.0,Calm,Calm,-,N/A,,Clear,0,2014-01-18 00:35:00
7:55 PM,46.4,39.2,76,29.91,10.0,Calm,Calm,-,N/A,,Clear,0,2014-01-18 00:55:00
8:15 PM,44.6,39.2,81,29.91,10.0,Calm,Calm,-,N/A,,Mostly Cloudy,0,2014-01-18 01:15:00
8:35 PM,46.4,39.2,76,29.91,10.0,Calm,Calm,-,N/A,,Mostly Cloudy,0,2014-01-18 01:35:00
8:55 PM,48.2,39.2,71,29.92,10.0,Calm,Calm,-,N/A,,Mostly Cloudy,0,2014-01-18 01:55:00
9:15 PM,48.2,39.2,71,29.92,10.0,SW,5.8,-,N/A,,Mostly Cloudy,230,2014-01-18 02:15:00
9:35 PM,53.6,33.8,47,29.93,10.0,West,6.9,13.8,N/A,,Mostly Cloudy,270,2014-01-18 02:35:00
9:55 PM,53.6,30.2,41,29.93,10.0,WNW,9.2,16.1,N/A,,Scattered Clouds,290,2014-01-18 02:55:00
10:15 PM,53.6,26.6,35,29.93,10.0,West,9.2,18.4,N/A,,Partly Cloudy,280,2014-01-18 03:15:00
10:35 PM,53.6,24.8,33,29.94,10.0,West,8.1,15.0,N/A,,Partly Cloudy,270,2014-01-18 03:35:00
10:55 PM,53.6,24.8,33,29.94,10.0,West,8.1,16.1,N/A,,Clear,270,2014-01-18 03:55:00
11:15 PM,50.0,23.0,35,29.95,10.0,WNW,11.5,24.2,N/A,,Partly Cloudy,290,2014-01-18 04:15:00
11:35 PM,48.2,23.0,37,29.95,10.0,WNW,16.1,23.0,N/A,,Clear,290,2014-01-18 04:35:00
11:55 PM,48.2,21.2,34,29.95,10.0,WNW,12.7,26.5,N/A,,Clear,290,2014-01-18 04:55:00